sat.trackr.live / text

‹ back to catalog

STARLINK-37066

NORAD 68081 · 2026-042N

PAYLOAD ACTIVE UNKNOWN

§ Identity

Operator
Country
US
Launch date
2026-03-04
Launch site
AFETR
Launch vehicle
Mass (kg)
RCS (m²)

Purposes: comms

External: N2YO · Heavens-Above · Gunter

§ Orbital elements

Epoch: 2026-05-24T19:42:52.203456Z

Period
93.85 min
Inclination
53.1586°
Eccentricity
0.0000976
Mean motion
15.34399132 rev/d
Perigee alt
462.0 km
Apogee alt
463.4 km
Semi-major
6,840.8 km
B*
3.0672e-4
RAAN
182.7877°
Arg perigee
86.0943°
Mean anomaly
274.0171°
Rev number
1,399

§ Raw data

STARLINK-370661 68081U 26042N   26144.82143754  .00010001  00000+0  30672-3 0  99902 68081  53.1586 182.7877 0000976  86.0943 274.0171 15.34399132 13999

JSON: /api/v1/satellites/68081 · /tle

For live sub-satellite position, see the globe view (requires WebGL).

§ Visibility from observer

Set your observer location to see the next 7 days of passes ≥ 10°. The values pass through the URL so the page stays shareable.

No JS? Fill the form by hand. The geolocation button needs JavaScript.